Search for airport 
image banner adimage banner ad
image banner ad

SVBM - Barquisimeto / Gral. Jacinto Lara Intl

Located in Barquisimeto, Venezuela

ICAO - SVBM, IATA - BRM

Data provided by Airmate  

General information

Coordinates: N10°2'32" W69°21'38"
Elevation is 2044 feet MSL.
 
Rated:
View ratings: [VIEW]


View others Airports in Lara

Operational data

Open for public use
Current time UTC:
Current local time:
Weather
METAR: SVBM 032202Z AUTO 14012KT NCD 31/15 Q1012
View NOTAMs / SUP AIP / TFR affecting this airport [VIEW]
Communications frequencies: [VIEW]

Runways:

RWY identifierQFULength (ft)Width (ft)SurfaceLDA (ft)
0981°7808148ASP
27261°7808148

Airport contact information

Address: Barquisimeto Venezuela

Satellite view of SVBM